TimeCST,TemperatureF,Dew PointF,Humidity,Sea Level PressureIn,VisibilityMPH,Wind Direction,Wind SpeedMPH,Gust SpeedMPH,PrecipitationIn,Events,Conditions,WindDirDegrees,DateUTC
12:48 AM,42.8,23.0,46,30.23,10.0,SW,4.6,-,N/A,,Partly Cloudy,230,2012-11-03 06:48:00
1:45 AM,44.6,23.0,43,30.23,10.0,SSW,8.1,-,N/A,,Partly Cloudy,200,2012-11-03 07:45:00
2:50 AM,44.6,23.0,43,30.22,10.0,Calm,Calm,-,N/A,,Clear,0,2012-11-03 08:50:00
3:44 AM,42.8,24.8,49,30.21,10.0,South,5.8,-,N/A,,Scattered Clouds,190,2012-11-03 09:44:00
4:44 AM,42.8,24.8,49,30.23,10.0,SSW,6.9,-,N/A,,Scattered Clouds,200,2012-11-03 10:44:00
5:46 AM,41.0,26.6,57,30.25,10.0,Calm,Calm,-,N/A,,Scattered Clouds,0,2012-11-03 11:46:00
6:48 AM,41.0,28.4,61,30.26,10.0,SSW,3.5,-,N/A,,Scattered Clouds,210,2012-11-03 12:48:00
9:44 AM,59.0,32.0,36,30.31,10.0,Calm,Calm,-,N/A,,Mostly Cloudy,0,2012-11-03 15:44:00
10:43 AM,64.4,32.0,30,30.30,10.0,Calm,Calm,-,N/A,,Mostly Cloudy,0,2012-11-03 16:43:00
11:47 AM,68.0,32.0,26,30.28,10.0,Calm,Calm,-,N/A,,Mostly Cloudy,0,2012-11-03 17:47:00
12:44 PM,69.8,32.0,25,30.16,10.0,South,9.2,-,N/A,,Mostly Cloudy,170,2012-11-03 18:44:00
1:41 PM,69.8,32.0,25,30.23,10.0,Calm,Calm,-,N/A,,Mostly Cloudy,0,2012-11-03 19:41:00
2:42 PM,69.8,33.8,27,30.20,10.0,Calm,Calm,-,N/A,,Mostly Cloudy,0,2012-11-03 20:42:00
4:40 PM,68.0,33.8,28,30.20,10.0,Calm,Calm,-,N/A,,Overcast,0,2012-11-03 22:40:00
5:40 PM,66.2,37.4,35,30.21,10.0,SSW,10.4,-,N/A,,Overcast,210,2012-11-03 23:40:00
7:10 PM,62.6,35.6,37,30.24,10.0,SW,5.8,-,N/A,,Overcast,220,2012-11-04 01:10:00
7:40 PM,60.8,37.4,42,30.25,10.0,South,8.1,-,N/A,,Overcast,190,2012-11-04 01:40:00
8:41 PM,60.8,35.6,39,30.26,10.0,South,8.1,-,N/A,,Overcast,180,2012-11-04 02:41:00
9:46 PM,57.2,37.4,48,30.28,10.0,South,6.9,-,N/A,,Overcast,180,2012-11-04 03:46:00
10:45 PM,60.8,35.6,39,30.28,10.0,Calm,Calm,-,N/A,,Overcast,0,2012-11-04 04:45:00
11:46 PM,55.4,37.4,51,30.28,10.0,Calm,Calm,-,N/A,,Overcast,0,2012-11-04 05:46:00